CDN519 EGPF-CYUL

Flight info

Callsign CDN519
Flight time N/A
Altitude 38000
Route LOMON DCT TIR DCT GOMUP/M083F380 DCT 5920N DCT 6130N DCT 6140N DCT 5950N DCT PORGY/N0481F380 DCT 53N064W/N0489F400 DCT YBC DCT TIBOS ROCKT3
Aircraft B77L/H-SDE1E2E3FGHIJ2J3J4J5M1RWXY/LB1D1

Departure

Time N/A
Airport Glasgow Airport (EGPF)

Arrival

Time 2026-05-07 21:47
Airport Montreal / Pierre Elliott Trudeau International Airport (CYUL)
Time Latitude Longitude Altitude Speed Heading
2026-05-07 16:51 58.87269 -19.17950 38065 ft 447 kts 286°
2026-05-07 16:51 58.88170 -19.23626 38067 ft 447 kts 285°
2026-05-07 16:52 58.89989 -19.35151 38070 ft 447 kts 285°
2026-05-07 16:52 58.90898 -19.40947 38201 ft 452 kts 288°
2026-05-07 16:52 58.91820 -19.46830 38144 ft 458 kts 287°
2026-05-07 16:53 58.93647 -19.58562 38084 ft 454 kts 287°
2026-05-07 16:53 58.95455 -19.70248 38094 ft 453 kts 287°
2026-05-07 16:54 58.97271 -19.82071 38096 ft 460 kts 287°
2026-05-07 16:54 58.99079 -19.93911 38083 ft 454 kts 287°
2026-05-07 16:55 59.01270 -20.05383 38102 ft 455 kts 296°
2026-05-07 16:55 59.04048 -20.16406 38103 ft 458 kts 297°
2026-05-07 16:56 59.06835 -20.27389 38105 ft 451 kts 296°
2026-05-07 16:56 59.11012 -20.44114 38120 ft 462 kts 296°
2026-05-07 16:57 59.13779 -20.55339 38110 ft 455 kts 296°
2026-05-07 16:57 59.16507 -20.66469 38124 ft 458 kts 296°
2026-05-07 16:58 59.19270 -20.77793 38128 ft 464 kts 296°
2026-05-07 16:58 59.22046 -20.89230 38128 ft 468 kts 296°
2026-05-07 16:59 59.24828 -21.00752 38130 ft 470 kts 296°
2026-05-07 16:59 59.27594 -21.12267 38136 ft 471 kts 296°
2026-05-07 17:00 59.30375 -21.23911 38142 ft 474 kts 296°
2026-05-07 17:00 59.33168 -21.35664 38145 ft 476 kts 296°
2026-05-07 17:01 59.35942 -21.47403 38142 ft 473 kts 296°
2026-05-07 17:01 59.38699 -21.59133 38143 ft 474 kts 296°
2026-05-07 17:02 59.41445 -21.70878 38153 ft 476 kts 295°
2026-05-07 17:02 59.44191 -21.82687 38143 ft 474 kts 295°
2026-05-07 17:03 59.46903 -21.94422 38145 ft 468 kts 295°
2026-05-07 17:03 59.49577 -22.06053 38153 ft 465 kts 295°
2026-05-07 17:04 59.52216 -22.17589 38159 ft 464 kts 295°
2026-05-07 17:04 59.54858 -22.29203 38166 ft 464 kts 295°
2026-05-07 17:05 59.57492 -22.40842 38173 ft 464 kts 295°
2026-05-07 17:05 59.60119 -22.52517 38176 ft 466 kts 295°
2026-05-07 17:06 59.62297 -22.62247 38171 ft 467 kts 295°
2026-05-07 17:06 59.65341 -22.75919 38178 ft 468 kts 295°
2026-05-07 17:07 59.67531 -22.85815 38180 ft 468 kts 295°
2026-05-07 17:07 59.70124 -22.97587 38182 ft 469 kts 295°
2026-05-07 17:08 59.72726 -23.09473 38187 ft 470 kts 295°
2026-05-07 17:08 59.75320 -23.21384 38189 ft 470 kts 295°
2026-05-07 17:09 59.77902 -23.33310 38193 ft 470 kts 295°
2026-05-07 17:09 59.80481 -23.45290 38196 ft 471 kts 295°
2026-05-07 17:10 59.83030 -23.57198 38198 ft 471 kts 295°
2026-05-07 17:10 59.85580 -23.69183 38199 ft 471 kts 295°
2026-05-07 17:11 59.88119 -23.81186 38208 ft 470 kts 295°
2026-05-07 17:11 59.90651 -23.93223 38210 ft 470 kts 295°
2026-05-07 17:12 59.93168 -24.05259 38213 ft 470 kts 295°
2026-05-07 17:12 59.95657 -24.17233 38209 ft 470 kts 295°
2026-05-07 17:13 59.98151 -24.29302 38213 ft 469 kts 295°
2026-05-07 17:13 60.00631 -24.41375 38223 ft 469 kts 295°
2026-05-07 17:14 60.03099 -24.53458 38219 ft 469 kts 295°
2026-05-07 17:14 60.05555 -24.65559 38233 ft 469 kts 295°
2026-05-07 17:15 60.07984 -24.77593 38241 ft 469 kts 295°
2026-05-07 17:15 60.10417 -24.89726 38237 ft 469 kts 294°
2026-05-07 17:16 60.12839 -25.01875 38232 ft 469 kts 294°
2026-05-07 17:16 60.15246 -25.14021 38244 ft 468 kts 294°
2026-05-07 17:17 60.17643 -25.26191 38245 ft 468 kts 294°
2026-05-07 17:17 60.20025 -25.38361 38239 ft 468 kts 294°
2026-05-07 17:18 60.22396 -25.50545 38242 ft 467 kts 294°
2026-05-07 17:18 60.24755 -25.62746 38255 ft 467 kts 294°
2026-05-07 17:19 60.27088 -25.74888 38249 ft 467 kts 294°
2026-05-07 17:19 60.29423 -25.87111 38257 ft 467 kts 294°
2026-05-07 17:20 60.31745 -25.99350 38259 ft 467 kts 294°
2026-05-07 17:20 60.34055 -26.11596 38264 ft 467 kts 294°
2026-05-07 17:21 60.36354 -26.23863 38269 ft 467 kts 294°
2026-05-07 17:21 60.38641 -26.36141 38270 ft 466 kts 294°
2026-05-07 17:22 60.40899 -26.48348 38271 ft 466 kts 294°
2026-05-07 17:22 60.43162 -26.60650 38272 ft 466 kts 294°
2026-05-07 17:23 60.45410 -26.72958 38276 ft 466 kts 294°
2026-05-07 17:23 60.47652 -26.85308 38285 ft 466 kts 293°
2026-05-07 17:24 60.49878 -26.97652 38288 ft 465 kts 293°
2026-05-07 17:24 60.52078 -27.09929 38289 ft 465 kts 293°
2026-05-07 17:25 60.54281 -27.22303 38304 ft 465 kts 293°
2026-05-07 17:25 60.56473 -27.34695 38302 ft 465 kts 293°
2026-05-07 17:26 60.58650 -27.47087 38303 ft 465 kts 293°
2026-05-07 17:26 60.60816 -27.59494 38299 ft 465 kts 293°
2026-05-07 17:27 60.62954 -27.71828 38304 ft 465 kts 293°
2026-05-07 17:27 60.65097 -27.84270 38308 ft 464 kts 293°
2026-05-07 17:28 60.67219 -27.96674 38310 ft 464 kts 293°
2026-05-07 17:28 60.69334 -28.09124 38311 ft 464 kts 292°
2026-05-07 17:29 60.71438 -28.21586 38314 ft 464 kts 292°
2026-05-07 17:29 60.73530 -28.34072 38316 ft 464 kts 292°
2026-05-07 17:30 60.75611 -28.46571 38323 ft 464 kts 292°
2026-05-07 17:30 60.77662 -28.58977 38329 ft 463 kts 292°
2026-05-07 17:31 60.79716 -28.71482 38328 ft 463 kts 292°
2026-05-07 17:31 60.81759 -28.84013 38327 ft 463 kts 292°
2026-05-07 17:32 60.83790 -28.96559 38333 ft 463 kts 292°
2026-05-07 17:32 60.85469 -29.06991 38339 ft 463 kts 292°
2026-05-07 17:33 60.87803 -29.21607 38339 ft 463 kts 292°
2026-05-07 17:33 60.89798 -29.34191 38347 ft 463 kts 292°
2026-05-07 17:34 60.91781 -29.46787 38344 ft 463 kts 292°
2026-05-07 17:34 60.93738 -29.59309 38346 ft 463 kts 292°
2026-05-07 17:35 60.95693 -29.71914 38350 ft 462 kts 292°
2026-05-07 17:35 60.97640 -29.84541 38352 ft 462 kts 292°
2026-05-07 17:36 60.99503 -29.97228 38359 ft 464 kts 288°
2026-05-07 17:36 61.00471 -30.10483 38358 ft 470 kts 279°
2026-05-07 17:37 61.00915 -30.23881 38356 ft 471 kts 278°
2026-05-07 17:37 61.01340 -30.37373 38362 ft 471 kts 279°
2026-05-07 17:38 61.01777 -30.50849 38374 ft 471 kts 279°
2026-05-07 17:38 61.02215 -30.64266 38371 ft 471 kts 279°
2026-05-07 17:39 61.02646 -30.77744 38367 ft 471 kts 279°
2026-05-07 17:39 61.03062 -30.91235 38373 ft 470 kts 279°
2026-05-07 17:40 61.03464 -31.04714 38373 ft 470 kts 278°
2026-05-07 17:40 61.03852 -31.18190 38376 ft 470 kts 278°
2026-05-07 17:41 61.04224 -31.31575 38379 ft 470 kts 278°
2026-05-07 17:41 61.04585 -31.45070 38383 ft 469 kts 278°
2026-05-07 17:42 61.04930 -31.58458 38382 ft 469 kts 278°
2026-05-07 17:42 61.05263 -31.71909 38383 ft 469 kts 278°
2026-05-07 17:43 61.05583 -31.85346 38383 ft 468 kts 278°
2026-05-07 17:43 61.05889 -31.98787 38388 ft 468 kts 278°
2026-05-07 17:44 61.06180 -32.12140 38390 ft 468 kts 278°
2026-05-07 17:44 61.06460 -32.25582 38389 ft 468 kts 278°
2026-05-07 17:45 61.06727 -32.39068 38397 ft 468 kts 278°
2026-05-07 17:45 61.06978 -32.52421 38385 ft 468 kts 278°
2026-05-07 17:46 61.07217 -32.65849 38399 ft 467 kts 278°
2026-05-07 17:46 61.07443 -32.79278 38391 ft 467 kts 277°
2026-05-07 17:47 61.07655 -32.92691 38396 ft 467 kts 277°
2026-05-07 17:47 61.07854 -33.06098 38397 ft 467 kts 277°
2026-05-07 17:48 61.08040 -33.19514 38392 ft 466 kts 277°
2026-05-07 17:48 61.08184 -33.30652 38397 ft 466 kts 277°
2026-05-07 17:49 61.08345 -33.44044 38398 ft 466 kts 277°
2026-05-07 17:49 61.08515 -33.59605 38399 ft 466 kts 277°
2026-05-07 17:50 61.08627 -33.70820 38401 ft 465 kts 277°
2026-05-07 17:50 61.08747 -33.84105 38400 ft 465 kts 276°
2026-05-07 17:51 61.08855 -33.97483 38397 ft 465 kts 276°
2026-05-07 17:51 61.08950 -34.10859 38395 ft 464 kts 276°
2026-05-07 17:52 61.09032 -34.24198 38395 ft 464 kts 276°
2026-05-07 17:52 61.09100 -34.37527 38397 ft 464 kts 276°
2026-05-07 17:53 61.09155 -34.50837 38396 ft 463 kts 276°
2026-05-07 17:53 61.09196 -34.64152 38396 ft 462 kts 276°
2026-05-07 17:54 61.09225 -34.77431 38395 ft 462 kts 275°
2026-05-07 17:54 61.09241 -34.90711 38396 ft 461 kts 275°
2026-05-07 17:55 61.09243 -35.03877 38391 ft 460 kts 275°
2026-05-07 17:55 61.09233 -35.17076 38379 ft 459 kts 275°
2026-05-07 17:56 61.09210 -35.30260 38384 ft 457 kts 275°
2026-05-07 17:56 61.09175 -35.43400 38386 ft 456 kts 275°
2026-05-07 17:57 61.09135 -35.54297 38384 ft 455 kts 275°
2026-05-07 17:57 61.09066 -35.69582 38386 ft 454 kts 275°
2026-05-07 17:58 61.08993 -35.82548 38388 ft 453 kts 275°
2026-05-07 17:58 61.08908 -35.95569 38385 ft 453 kts 274°
2026-05-07 17:59 61.08810 -36.08581 38385 ft 452 kts 274°
2026-05-07 17:59 61.08700 -36.21557 38367 ft 451 kts 274°
2026-05-07 18:00 61.08577 -36.34530 38378 ft 451 kts 274°
2026-05-07 18:00 61.08443 -36.47497 38366 ft 451 kts 274°
2026-05-07 18:01 61.08296 -36.60454 38370 ft 451 kts 274°
2026-05-07 18:01 61.08137 -36.73360 38372 ft 452 kts 274°
2026-05-07 18:02 61.07873 -36.92894 38371 ft 454 kts 273°
2026-05-07 18:03 61.07681 -37.05939 38368 ft 455 kts 273°
2026-05-07 18:03 61.07476 -37.19014 38369 ft 456 kts 273°
2026-05-07 18:04 61.07257 -37.32125 38368 ft 456 kts 272°
2026-05-07 18:04 61.07027 -37.45175 38369 ft 457 kts 272°
2026-05-07 18:05 61.06783 -37.58286 38364 ft 457 kts 272°
2026-05-07 18:05 61.06526 -37.71406 38361 ft 457 kts 272°
2026-05-07 18:06 61.06255 -37.84552 38359 ft 456 kts 271°
2026-05-07 18:06 61.05974 -37.97639 38357 ft 456 kts 271°
2026-05-07 18:07 61.05681 -38.10635 38357 ft 455 kts 271°
2026-05-07 18:07 61.05375 -38.23688 38356 ft 455 kts 271°
2026-05-07 18:08 61.05057 -38.36728 38354 ft 455 kts 270°
2026-05-07 18:08 61.04726 -38.49767 38353 ft 455 kts 270°
2026-05-07 18:09 61.04382 -38.62817 38354 ft 455 kts 270°
2026-05-07 18:09 61.04028 -38.75762 38349 ft 455 kts 270°
2026-05-07 18:10 61.03659 -38.88806 38352 ft 455 kts 270°
2026-05-07 18:10 61.03277 -39.01869 38353 ft 455 kts 269°
2026-05-07 18:11 61.02882 -39.14917 38352 ft 456 kts 269°
2026-05-07 18:11 61.02475 -39.27966 38345 ft 456 kts 269°
2026-05-07 18:12 61.02057 -39.40929 38343 ft 455 kts 269°
2026-05-07 18:12 61.01626 -39.53960 38341 ft 455 kts 269°
2026-05-07 18:13 61.01182 -39.66968 38345 ft 454 kts 268°
2026-05-07 18:13 61.00728 -39.79956 38340 ft 454 kts 268°
2026-05-07 18:14 61.00263 -39.92858 38343 ft 453 kts 268°
2026-05-07 18:14 60.99195 -40.05665 38329 ft 456 kts 257°
2026-05-07 18:15 60.97281 -40.18127 38332 ft 456 kts 255°
2026-05-07 18:15 60.95319 -40.30559 38330 ft 456 kts 255°
2026-05-07 18:16 60.93366 -40.42990 38329 ft 456 kts 255°
2026-05-07 18:16 60.91417 -40.55421 38330 ft 457 kts 255°
2026-05-07 18:17 60.89457 -40.67862 38329 ft 457 kts 255°
2026-05-07 18:17 60.87501 -40.80198 38330 ft 457 kts 254°
2026-05-07 18:18 60.85518 -40.92608 38341 ft 457 kts 254°
2026-05-07 18:18 60.83522 -41.05015 38321 ft 457 kts 254°
2026-05-07 18:19 60.81518 -41.17382 38319 ft 457 kts 254°
2026-05-07 18:19 60.79499 -41.29751 38313 ft 457 kts 253°
2026-05-07 18:20 60.77482 -41.42029 38326 ft 457 kts 253°
2026-05-07 18:20 60.75443 -41.54355 38319 ft 457 kts 253°
2026-05-07 18:21 60.73395 -41.66653 38326 ft 456 kts 253°
2026-05-07 18:21 60.71337 -41.78926 38325 ft 456 kts 253°
2026-05-07 18:22 60.69283 -41.91096 38318 ft 456 kts 253°
2026-05-07 18:22 60.67206 -42.03319 38323 ft 455 kts 253°
2026-05-07 18:23 60.65119 -42.15518 38321 ft 455 kts 253°
2026-05-07 18:23 60.63021 -42.27704 38317 ft 455 kts 253°
2026-05-07 18:24 60.60914 -42.39865 38323 ft 455 kts 253°
2026-05-07 18:24 60.58796 -42.52003 38321 ft 455 kts 252°
2026-05-07 18:25 60.56683 -42.64038 38316 ft 454 kts 252°
2026-05-07 18:25 60.54547 -42.76121 38319 ft 454 kts 252°
2026-05-07 18:26 60.52405 -42.88169 38325 ft 453 kts 252°
2026-05-07 18:26 60.50252 -43.00194 38322 ft 452 kts 252°
2026-05-07 18:27 60.48105 -43.12114 38324 ft 452 kts 252°
2026-05-07 18:27 60.45938 -43.24070 38323 ft 451 kts 252°
2026-05-07 18:28 60.43760 -43.36008 38319 ft 451 kts 251°
2026-05-07 18:28 60.41591 -43.47828 38325 ft 450 kts 251°
2026-05-07 18:29 60.39399 -43.59696 38319 ft 449 kts 251°
2026-05-07 18:29 60.37200 -43.71536 38323 ft 448 kts 251°
2026-05-07 18:30 60.35009 -43.83256 38313 ft 448 kts 251°
2026-05-07 18:30 60.32786 -43.95076 38314 ft 447 kts 251°
2026-05-07 18:31 60.30583 -44.06720 38313 ft 447 kts 251°
2026-05-07 18:31 60.28355 -44.18425 38300 ft 446 kts 250°
2026-05-07 18:32 60.26493 -44.28153 38292 ft 446 kts 250°
2026-05-07 18:32 60.24249 -44.39817 38285 ft 446 kts 250°
2026-05-07 18:33 60.21993 -44.51468 38277 ft 446 kts 250°
2026-05-07 18:33 60.19744 -44.63021 38268 ft 446 kts 250°
2026-05-07 18:34 60.17470 -44.74632 38250 ft 446 kts 250°
2026-05-07 18:34 60.15184 -44.86236 38250 ft 446 kts 250°
2026-05-07 18:35 60.12891 -44.97812 38235 ft 446 kts 250°
2026-05-07 18:35 60.10585 -45.09378 38226 ft 446 kts 249°
2026-05-07 18:36 60.08271 -45.20922 38223 ft 446 kts 249°
2026-05-07 18:36 60.05964 -45.32367 38222 ft 446 kts 249°
2026-05-07 18:37 60.03634 -45.43858 38217 ft 445 kts 249°
2026-05-07 18:37 60.01292 -45.55343 38214 ft 445 kts 249°
2026-05-07 18:38 59.98943 -45.66799 38213 ft 445 kts 249°
2026-05-07 18:38 59.96601 -45.78155 38204 ft 445 kts 249°
2026-05-07 18:39 59.94235 -45.89568 38203 ft 445 kts 249°
2026-05-07 18:39 59.91857 -46.00971 38200 ft 445 kts 249°
2026-05-07 18:40 59.89469 -46.12361 38200 ft 445 kts 248°
2026-05-07 18:40 59.87076 -46.23708 38198 ft 444 kts 248°
2026-05-07 18:41 59.84672 -46.35045 38191 ft 444 kts 248°
2026-05-07 18:41 59.82279 -46.46272 38188 ft 443 kts 248°
2026-05-07 18:42 59.79858 -46.57563 38172 ft 443 kts 248°
2026-05-07 18:42 59.77434 -46.68814 38173 ft 443 kts 248°
2026-05-07 18:43 59.74997 -46.80058 38172 ft 443 kts 248°
2026-05-07 18:43 59.72554 -46.91273 38158 ft 443 kts 248°
2026-05-07 18:44 59.70116 -47.02405 38157 ft 443 kts 247°
2026-05-07 18:44 59.67648 -47.13612 38150 ft 443 kts 247°
2026-05-07 18:45 59.65172 -47.24797 38149 ft 443 kts 247°
2026-05-07 18:45 59.62690 -47.35950 38142 ft 443 kts 247°
2026-05-07 18:46 59.60197 -47.47095 38138 ft 443 kts 247°
2026-05-07 18:46 59.57694 -47.58225 38129 ft 443 kts 246°
2026-05-07 18:47 59.55181 -47.69337 38130 ft 443 kts 246°
2026-05-07 18:47 59.52676 -47.80363 38121 ft 443 kts 246°
2026-05-07 18:48 59.50146 -47.91436 38117 ft 443 kts 246°
2026-05-07 18:48 59.47606 -48.02496 38111 ft 442 kts 246°
2026-05-07 18:49 59.45062 -48.13518 38105 ft 442 kts 246°
2026-05-07 18:49 59.42525 -48.24455 38103 ft 442 kts 246°
2026-05-07 18:50 59.39961 -48.35446 38098 ft 442 kts 246°
2026-05-07 18:50 59.37393 -48.46403 38092 ft 442 kts 245°
2026-05-07 18:51 59.34818 -48.57333 38090 ft 442 kts 245°
2026-05-07 18:51 59.32234 -48.68246 38084 ft 441 kts 245°
2026-05-07 18:52 59.29642 -48.79136 38081 ft 441 kts 245°
2026-05-07 18:52 59.27039 -48.90021 38074 ft 441 kts 245°
2026-05-07 18:53 59.24425 -49.00894 38077 ft 441 kts 245°
2026-05-07 18:53 59.21821 -49.11676 38069 ft 441 kts 245°
2026-05-07 18:54 59.19192 -49.22503 38064 ft 441 kts 245°
2026-05-07 18:54 59.16553 -49.33319 38064 ft 441 kts 244°
2026-05-07 18:55 59.13910 -49.44101 38055 ft 441 kts 244°
2026-05-07 18:55 59.11255 -49.54878 38061 ft 441 kts 244°
2026-05-07 18:56 59.08593 -49.65628 38057 ft 441 kts 244°
2026-05-07 18:56 59.05939 -49.76297 38057 ft 441 kts 244°
2026-05-07 18:57 59.03260 -49.87019 38053 ft 440 kts 244°
2026-05-07 18:57 59.00578 -49.97703 38050 ft 440 kts 244°
2026-05-07 18:58 58.97785 -50.08286 38041 ft 440 kts 242°
2026-05-07 18:58 58.94838 -50.18681 38046 ft 440 kts 241°
2026-05-07 18:59 58.91883 -50.29046 38048 ft 439 kts 241°
2026-05-07 18:59 58.88962 -50.39336 38040 ft 439 kts 241°
2026-05-07 19:00 58.86023 -50.49694 38039 ft 439 kts 241°
2026-05-07 19:00 58.83083 -50.60025 38028 ft 438 kts 241°
2026-05-07 19:01 58.80138 -50.70324 38035 ft 438 kts 241°
2026-05-07 19:01 58.77185 -50.80603 38038 ft 437 kts 241°
2026-05-07 19:02 58.74247 -50.90785 38015 ft 437 kts 241°
2026-05-07 19:02 58.71284 -51.01007 38018 ft 437 kts 240°
2026-05-07 19:03 58.68315 -51.11205 38018 ft 436 kts 240°
2026-05-07 19:03 58.65342 -51.21371 38017 ft 436 kts 240°
2026-05-07 19:04 58.62364 -51.31511 38011 ft 436 kts 240°
2026-05-07 19:04 58.59379 -51.41631 38009 ft 435 kts 240°
2026-05-07 19:05 58.56395 -51.51704 38006 ft 435 kts 240°
2026-05-07 19:05 58.53422 -51.61692 38000 ft 434 kts 240°
2026-05-07 19:06 58.50424 -51.71727 38003 ft 434 kts 240°
2026-05-07 19:06 58.45923 -51.86704 37992 ft 433 kts 239°
2026-05-07 19:07 58.42911 -51.96677 37996 ft 433 kts 239°
2026-05-07 19:07 58.39897 -52.06612 37994 ft 432 kts 239°
2026-05-07 19:08 58.36876 -52.16525 37976 ft 432 kts 239°
2026-05-07 19:08 58.33870 -52.26353 37972 ft 432 kts 239°
2026-05-07 19:09 58.30836 -52.36227 37969 ft 432 kts 239°
2026-05-07 19:09 58.27795 -52.46082 37965 ft 432 kts 238°
2026-05-07 19:10 58.24745 -52.55925 37967 ft 432 kts 238°
2026-05-07 19:10 58.21685 -52.65760 37961 ft 432 kts 238°
2026-05-07 19:11 58.18621 -52.75565 37956 ft 432 kts 238°
2026-05-07 19:11 58.15565 -52.85305 37954 ft 432 kts 238°
2026-05-07 19:12 58.12482 -52.95092 37949 ft 432 kts 238°
2026-05-07 19:12 58.09390 -53.04863 37945 ft 432 kts 238°
2026-05-07 19:13 58.06293 -53.14613 37942 ft 433 kts 238°
2026-05-07 19:13 58.03184 -53.24359 37935 ft 433 kts 237°
2026-05-07 19:14 58.00089 -53.34019 37933 ft 433 kts 237°
2026-05-07 19:14 57.96968 -53.43725 37933 ft 433 kts 237°
2026-05-07 19:15 57.93835 -53.53424 37920 ft 433 kts 237°
2026-05-07 19:15 57.90690 -53.63122 37920 ft 433 kts 237°
2026-05-07 19:16 57.88075 -53.71155 37916 ft 433 kts 237°
2026-05-07 19:16 57.84923 -53.80803 37911 ft 433 kts 237°
2026-05-07 19:17 57.81773 -53.90405 37908 ft 433 kts 237°
2026-05-07 19:17 57.78600 -54.00039 37903 ft 433 kts 236°
2026-05-07 19:18 57.75418 -54.09660 37906 ft 434 kts 236°
2026-05-07 19:18 57.72234 -54.19250 37893 ft 434 kts 236°
2026-05-07 19:19 57.69042 -54.28823 37892 ft 434 kts 236°
2026-05-07 19:19 57.65860 -54.38328 37890 ft 434 kts 236°
2026-05-07 19:20 57.62651 -54.47875 37886 ft 434 kts 236°
2026-05-07 19:20 57.59427 -54.57431 37886 ft 435 kts 236°
2026-05-07 19:21 57.56187 -54.66994 37878 ft 435 kts 236°
2026-05-07 19:21 57.52947 -54.76519 37872 ft 435 kts 236°
2026-05-07 19:22 57.49713 -54.85988 37868 ft 436 kts 236°
2026-05-07 19:22 57.46454 -54.95494 37861 ft 436 kts 235°
2026-05-07 19:23 57.43188 -55.04981 37862 ft 436 kts 235°
2026-05-07 19:23 57.39912 -55.14460 37857 ft 436 kts 235°
2026-05-07 19:24 57.36623 -55.23938 37849 ft 436 kts 235°
2026-05-07 19:24 57.33354 -55.33322 37845 ft 436 kts 235°
2026-05-07 19:25 57.30058 -55.42748 37840 ft 436 kts 235°
2026-05-07 19:25 57.26752 -55.52163 37835 ft 436 kts 234°
2026-05-07 19:26 57.23441 -55.61557 37829 ft 436 kts 234°
2026-05-07 19:26 57.20128 -55.70921 37824 ft 436 kts 234°
2026-05-07 19:27 57.16807 -55.80270 37818 ft 435 kts 234°
2026-05-07 19:27 57.13478 -55.89604 37811 ft 435 kts 234°
2026-05-07 19:28 57.10145 -55.98916 37805 ft 435 kts 234°
2026-05-07 19:28 57.06827 -56.08148 37798 ft 435 kts 234°
2026-05-07 19:29 57.03482 -56.17421 37794 ft 435 kts 234°
2026-05-07 19:29 57.00130 -56.26676 37785 ft 435 kts 233°
2026-05-07 19:30 56.96770 -56.35917 37783 ft 435 kts 233°
2026-05-07 19:30 56.93402 -56.45146 37775 ft 436 kts 233°
2026-05-07 19:31 56.90019 -56.54380 37771 ft 436 kts 233°
2026-05-07 19:31 56.86653 -56.63535 37764 ft 436 kts 233°
2026-05-07 19:32 56.83256 -56.72737 37759 ft 436 kts 233°
2026-05-07 19:32 56.79851 -56.81926 37752 ft 437 kts 233°
2026-05-07 19:33 56.76439 -56.91100 37742 ft 437 kts 233°
2026-05-07 19:33 56.73018 -57.00264 37741 ft 437 kts 233°
2026-05-07 19:34 56.69611 -57.09355 37735 ft 437 kts 232°
2026-05-07 19:34 56.66175 -57.18489 37725 ft 437 kts 232°
2026-05-07 19:35 56.62730 -57.27613 37723 ft 438 kts 232°
2026-05-07 19:35 56.59278 -57.36721 37721 ft 438 kts 232°
2026-05-07 19:36 56.55814 -57.45829 37719 ft 439 kts 232°
2026-05-07 19:36 56.52337 -57.54932 37699 ft 439 kts 232°
2026-05-07 19:37 56.48849 -57.64035 37695 ft 439 kts 232°
2026-05-07 19:37 56.45359 -57.73105 37683 ft 439 kts 232°
2026-05-07 19:38 56.41878 -57.82123 37687 ft 439 kts 232°
2026-05-07 19:38 56.38371 -57.91172 37678 ft 440 kts 231°
2026-05-07 19:39 56.34854 -58.00219 37669 ft 440 kts 231°
2026-05-07 19:39 56.31276 -58.09179 37667 ft 439 kts 228°
2026-05-07 19:40 56.27248 -58.17419 37663 ft 438 kts 225°
2026-05-07 19:40 56.23161 -58.25571 37655 ft 439 kts 225°
2026-05-07 19:41 56.19078 -58.33728 37640 ft 439 kts 225°
2026-05-07 19:41 56.15019 -58.41841 37643 ft 440 kts 225°
2026-05-07 19:42 56.10917 -58.50025 37628 ft 441 kts 225°
2026-05-07 19:42 56.06808 -58.58198 37622 ft 441 kts 225°
2026-05-07 19:43 56.02701 -58.66335 37616 ft 440 kts 225°
2026-05-07 19:43 55.98588 -58.74456 37611 ft 439 kts 225°
2026-05-07 19:44 55.94507 -58.82486 37603 ft 439 kts 225°
2026-05-07 19:44 55.90391 -58.90559 37603 ft 439 kts 225°
2026-05-07 19:45 55.86274 -58.98603 37604 ft 439 kts 224°
2026-05-07 19:45 55.82149 -59.06637 37595 ft 439 kts 224°
2026-05-07 19:46 55.78026 -59.14642 37594 ft 439 kts 224°
2026-05-07 19:46 55.73917 -59.22592 37590 ft 439 kts 224°
2026-05-07 19:47 55.69778 -59.30572 37597 ft 439 kts 224°
2026-05-07 19:47 55.65618 -59.38566 37583 ft 439 kts 224°
2026-05-07 19:48 55.61479 -59.46494 37576 ft 440 kts 224°
2026-05-07 19:48 55.57325 -59.54422 37588 ft 440 kts 224°
2026-05-07 19:49 55.53161 -59.62344 37580 ft 440 kts 224°
2026-05-07 19:49 55.48989 -59.70253 37582 ft 440 kts 224°
2026-05-07 19:50 55.44811 -59.78150 37585 ft 440 kts 224°
2026-05-07 19:50 55.40627 -59.86029 37590 ft 440 kts 224°
2026-05-07 19:51 55.36464 -59.93846 37591 ft 440 kts 224°
2026-05-07 19:51 55.32266 -60.01699 37596 ft 441 kts 224°
2026-05-07 19:52 55.28056 -60.09550 37591 ft 441 kts 223°
2026-05-07 19:52 55.23843 -60.17380 37587 ft 442 kts 223°
2026-05-07 19:53 55.19615 -60.25212 37578 ft 442 kts 223°
2026-05-07 19:53 55.15404 -60.32988 37576 ft 443 kts 223°
2026-05-07 19:54 55.11161 -60.40798 37576 ft 443 kts 223°
2026-05-07 19:54 55.06899 -60.48615 37571 ft 443 kts 223°
2026-05-07 19:55 55.02635 -60.56411 37555 ft 444 kts 223°
2026-05-07 19:55 54.98367 -60.64188 37556 ft 444 kts 223°
2026-05-07 19:56 54.94124 -60.71894 37557 ft 444 kts 223°
2026-05-07 19:56 54.89844 -60.79643 37544 ft 444 kts 223°
2026-05-07 19:57 54.85559 -60.87374 37550 ft 445 kts 223°
2026-05-07 19:57 54.81982 -60.93808 37540 ft 446 kts 223°
2026-05-07 19:58 54.77667 -61.01549 37543 ft 446 kts 223°
2026-05-07 19:58 54.73347 -61.09272 37531 ft 446 kts 223°
2026-05-07 19:59 54.69026 -61.16972 37519 ft 445 kts 223°
2026-05-07 19:59 54.64731 -61.24601 37531 ft 444 kts 223°
2026-05-07 20:00 54.60415 -61.32242 37520 ft 444 kts 223°
2026-05-07 20:00 54.56102 -61.39854 37511 ft 444 kts 223°
2026-05-07 20:01 54.51780 -61.47456 37517 ft 443 kts 223°
2026-05-07 20:01 54.47460 -61.55030 37509 ft 443 kts 223°
2026-05-07 20:02 54.43160 -61.62546 37510 ft 444 kts 223°
2026-05-07 20:02 54.38818 -61.70110 37504 ft 444 kts 223°
2026-05-07 20:03 54.34470 -61.77661 37506 ft 444 kts 223°
2026-05-07 20:03 54.30117 -61.85197 37506 ft 445 kts 223°
2026-05-07 20:04 54.25754 -61.92724 37512 ft 445 kts 223°
2026-05-07 20:04 54.21419 -62.00182 37513 ft 445 kts 222°
2026-05-07 20:05 54.17040 -62.07691 37513 ft 445 kts 222°
2026-05-07 20:05 54.12660 -62.15178 37515 ft 446 kts 222°
2026-05-07 20:06 54.08276 -62.22646 37501 ft 445 kts 222°
2026-05-07 20:06 54.03884 -62.30105 37509 ft 445 kts 222°
2026-05-07 20:07 53.99490 -62.37544 37518 ft 445 kts 222°
2026-05-07 20:07 53.95092 -62.44967 37523 ft 446 kts 222°
2026-05-07 20:08 53.90709 -62.52341 37506 ft 447 kts 222°
2026-05-07 20:08 53.86290 -62.59755 37522 ft 446 kts 222°
2026-05-07 20:09 53.81877 -62.67133 37534 ft 445 kts 222°
2026-05-07 20:10 53.75266 -62.78142 37524 ft 445 kts 222°
2026-05-07 20:10 53.70846 -62.85474 37519 ft 445 kts 222°
2026-05-07 20:11 53.66420 -62.92795 37527 ft 445 kts 222°
2026-05-07 20:11 53.61982 -63.00111 37530 ft 446 kts 221°
2026-05-07 20:12 53.57536 -63.07417 37539 ft 446 kts 221°
2026-05-07 20:12 53.53111 -63.14667 37537 ft 447 kts 221°
2026-05-07 20:13 53.48655 -63.21946 37546 ft 447 kts 221°
2026-05-07 20:13 53.44181 -63.29233 37547 ft 448 kts 221°
2026-05-07 20:14 53.39696 -63.36512 37545 ft 448 kts 221°
2026-05-07 20:14 53.35207 -63.43778 37558 ft 448 kts 221°
2026-05-07 20:15 53.30742 -63.50983 37561 ft 448 kts 221°
2026-05-07 20:15 53.26244 -63.58216 37558 ft 448 kts 221°
2026-05-07 20:16 53.21732 -63.65452 37560 ft 449 kts 221°
2026-05-07 20:16 53.17252 -63.72612 37558 ft 449 kts 221°
2026-05-07 20:17 53.12742 -63.79802 37560 ft 449 kts 221°
2026-05-07 20:17 53.08221 -63.86986 37566 ft 449 kts 221°
2026-05-07 20:18 53.03696 -63.94160 37564 ft 449 kts 221°
2026-05-07 20:18 52.99089 -64.01162 37569 ft 447 kts 216°
2026-05-07 20:19 52.94064 -64.07266 37566 ft 447 kts 214°
2026-05-07 20:19 52.89010 -64.13298 37573 ft 447 kts 214°
2026-05-07 20:20 52.83999 -64.19297 37571 ft 448 kts 214°
2026-05-07 20:20 52.78955 -64.25342 37578 ft 448 kts 214°
2026-05-07 20:21 52.73898 -64.31391 37571 ft 449 kts 214°
2026-05-07 20:21 52.68835 -64.37432 37575 ft 449 kts 214°
2026-05-07 20:22 52.63774 -64.43450 37573 ft 449 kts 214°
2026-05-07 20:22 52.58733 -64.49427 37592 ft 449 kts 214°
2026-05-07 20:23 52.53655 -64.55431 37585 ft 449 kts 214°
2026-05-07 20:23 52.48574 -64.61420 37580 ft 449 kts 214°
2026-05-07 20:24 52.43500 -64.67385 37579 ft 449 kts 214°
2026-05-07 20:24 52.38423 -64.73334 37591 ft 448 kts 214°
2026-05-07 20:25 52.33336 -64.79279 37689 ft 452 kts 214°
2026-05-07 20:25 52.30768 -64.82273 38054 ft 452 kts 214°
2026-05-07 20:25 52.28240 -64.85217 38435 ft 451 kts 214°
2026-05-07 20:25 52.25679 -64.88194 38758 ft 450 kts 214°
2026-05-07 20:26 52.23126 -64.91159 39004 ft 451 kts 214°
2026-05-07 20:26 52.20564 -64.94128 39258 ft 451 kts 214°
2026-05-07 20:26 52.18002 -64.97095 39485 ft 452 kts 214°
2026-05-07 20:27 52.12839 -65.03059 39562 ft 455 kts 214°
2026-05-07 20:27 52.07707 -65.08971 39577 ft 452 kts 214°
2026-05-07 20:28 52.02580 -65.14860 39581 ft 450 kts 214°
2026-05-07 20:28 51.97495 -65.20683 39588 ft 449 kts 214°
2026-05-07 20:29 51.92386 -65.26517 39601 ft 449 kts 214°
2026-05-07 20:29 51.87273 -65.32340 39588 ft 449 kts 214°
2026-05-07 20:30 51.82155 -65.38152 39588 ft 449 kts 214°
2026-05-07 20:30 51.77033 -65.43952 39586 ft 450 kts 214°
2026-05-07 20:31 51.71932 -65.49712 39588 ft 450 kts 214°
2026-05-07 20:31 51.66791 -65.55500 39591 ft 451 kts 214°
2026-05-07 20:32 51.61636 -65.61289 39593 ft 451 kts 214°
2026-05-07 20:32 51.56481 -65.67060 39594 ft 452 kts 214°
2026-05-07 20:33 51.51319 -65.72823 39595 ft 452 kts 214°
2026-05-07 20:33 51.46153 -65.78575 39600 ft 451 kts 214°
2026-05-07 20:34 51.41018 -65.84276 39599 ft 452 kts 214°
2026-05-07 20:34 51.35841 -65.90008 39602 ft 451 kts 214°
2026-05-07 20:35 51.30663 -65.95725 39606 ft 451 kts 214°
2026-05-07 20:35 51.25486 -66.01425 39606 ft 451 kts 214°
2026-05-07 20:36 51.20337 -66.07078 39603 ft 451 kts 214°
2026-05-07 20:36 51.15156 -66.12750 39608 ft 451 kts 214°
2026-05-07 20:37 51.09976 -66.18407 39606 ft 451 kts 214°
2026-05-07 20:37 51.04791 -66.24052 39611 ft 451 kts 214°
2026-05-07 20:38 50.99640 -66.29645 39605 ft 451 kts 214°
2026-05-07 20:38 50.94452 -66.35262 39612 ft 451 kts 214°
2026-05-07 20:39 50.89267 -66.40862 39601 ft 451 kts 214°
2026-05-07 20:39 50.84076 -66.46453 39603 ft 451 kts 214°
2026-05-07 20:40 50.78881 -66.52031 39600 ft 451 kts 214°
2026-05-07 20:40 50.74555 -66.56665 39601 ft 452 kts 214°
2026-05-07 20:41 50.69350 -66.62228 39599 ft 452 kts 214°
2026-05-07 20:41 50.63287 -66.68688 39596 ft 453 kts 214°
2026-05-07 20:42 50.58918 -66.73331 39594 ft 452 kts 214°
2026-05-07 20:42 50.53725 -66.78835 39589 ft 453 kts 214°
2026-05-07 20:43 50.48490 -66.84368 39592 ft 453 kts 214°
2026-05-07 20:43 50.43258 -66.89884 39593 ft 453 kts 214°
2026-05-07 20:44 50.38022 -66.95389 39600 ft 453 kts 214°
2026-05-07 20:44 50.32814 -67.00850 39598 ft 453 kts 214°
2026-05-07 20:45 50.27574 -67.06330 39602 ft 453 kts 214°
2026-05-07 20:45 50.22334 -67.11794 39607 ft 453 kts 214°
2026-05-07 20:46 50.17082 -67.17256 39607 ft 453 kts 214°
2026-05-07 20:46 50.11829 -67.22705 39618 ft 453 kts 214°
2026-05-07 20:47 50.06599 -67.28116 39616 ft 453 kts 214°
2026-05-07 20:47 50.01341 -67.33541 39617 ft 453 kts 214°
2026-05-07 20:48 49.96086 -67.38948 39613 ft 453 kts 214°
2026-05-07 20:48 49.90831 -67.44342 39622 ft 452 kts 214°
2026-05-07 20:49 49.85573 -67.49723 39629 ft 452 kts 214°
2026-05-07 20:49 49.80358 -67.55048 39625 ft 452 kts 214°
2026-05-07 20:50 49.75092 -67.60409 39624 ft 452 kts 214°
2026-05-07 20:50 49.69829 -67.65755 39630 ft 452 kts 214°
2026-05-07 20:51 49.64569 -67.71082 39625 ft 452 kts 214°
2026-05-07 20:51 49.59303 -67.76402 39627 ft 452 kts 214°
2026-05-07 20:52 49.54039 -67.81706 39633 ft 452 kts 214°
2026-05-07 20:52 49.48768 -67.87003 39638 ft 452 kts 214°
2026-05-07 20:53 49.43531 -67.92252 39638 ft 452 kts 214°
2026-05-07 20:53 49.38262 -67.97520 39640 ft 452 kts 214°
2026-05-07 20:54 49.32977 -68.02791 39637 ft 452 kts 214°
2026-05-07 20:54 49.27690 -68.08050 39638 ft 452 kts 214°
2026-05-07 20:55 49.22439 -68.13260 39636 ft 452 kts 214°
2026-05-07 20:55 49.17164 -68.18481 39635 ft 452 kts 214°
2026-05-07 20:56 49.12024 -68.24003 39637 ft 451 kts 221°
2026-05-07 20:56 49.07372 -68.30402 39640 ft 450 kts 223°
2026-05-07 20:57 49.02736 -68.36824 39641 ft 450 kts 223°
2026-05-07 20:57 48.98083 -68.43220 39645 ft 451 kts 223°
2026-05-07 20:58 48.93410 -68.49608 39649 ft 451 kts 223°
2026-05-07 20:58 48.88737 -68.55973 39656 ft 451 kts 223°
2026-05-07 20:59 48.84056 -68.62333 39659 ft 451 kts 223°
2026-05-07 20:59 48.79408 -68.68632 39663 ft 451 kts 223°
2026-05-07 21:00 48.74724 -68.74962 39663 ft 451 kts 223°
2026-05-07 21:00 48.70040 -68.81278 39662 ft 450 kts 223°
2026-05-07 21:01 48.65357 -68.87575 39669 ft 450 kts 222°
2026-05-07 21:01 48.60671 -68.93860 39676 ft 450 kts 222°
2026-05-07 21:02 48.55992 -69.00120 39669 ft 449 kts 222°
2026-05-07 21:02 48.51308 -69.06370 39675 ft 449 kts 222°
2026-05-07 21:03 48.46643 -69.12578 39679 ft 449 kts 222°
2026-05-07 21:03 48.41954 -69.18804 39678 ft 449 kts 222°
2026-05-07 21:04 48.37256 -69.25024 39681 ft 449 kts 222°
2026-05-07 21:04 48.32562 -69.31223 39686 ft 449 kts 222°
2026-05-07 21:05 48.27857 -69.37422 39687 ft 449 kts 222°
2026-05-07 21:05 48.23145 -69.43614 39691 ft 450 kts 222°
2026-05-07 21:06 48.18432 -69.49791 39689 ft 450 kts 222°
2026-05-07 21:06 48.13748 -69.55915 39691 ft 450 kts 222°
2026-05-07 21:07 48.09023 -69.62076 39689 ft 450 kts 222°
2026-05-07 21:07 48.04293 -69.68229 39690 ft 451 kts 222°
2026-05-07 21:08 47.99552 -69.74381 39694 ft 451 kts 222°
2026-05-07 21:08 47.94805 -69.80525 39697 ft 451 kts 222°
2026-05-07 21:09 47.90092 -69.86609 39702 ft 451 kts 222°
2026-05-07 21:09 47.85342 -69.92725 39700 ft 451 kts 222°
2026-05-07 21:10 47.80590 -69.98828 39719 ft 451 kts 222°
2026-05-07 21:10 47.75837 -70.04919 39701 ft 450 kts 222°
2026-05-07 21:11 47.71082 -70.10996 39697 ft 450 kts 222°
2026-05-07 21:11 47.63988 -70.20034 39705 ft 449 kts 223°
2026-05-07 21:12 47.59247 -70.26055 39698 ft 448 kts 222°
2026-05-07 21:12 47.54507 -70.32062 39716 ft 447 kts 223°
2026-05-07 21:13 47.49770 -70.38049 39697 ft 447 kts 222°
2026-05-07 21:13 47.45069 -70.43976 39712 ft 446 kts 222°
2026-05-07 21:14 47.40333 -70.49933 39695 ft 446 kts 222°
2026-05-07 21:14 47.35608 -70.55860 39713 ft 445 kts 222°
2026-05-07 21:15 47.30881 -70.61777 39708 ft 445 kts 222°
2026-05-07 21:15 47.26179 -70.67648 39711 ft 445 kts 222°
2026-05-07 21:16 47.21449 -70.73540 39713 ft 446 kts 222°
2026-05-07 21:16 47.16711 -70.79428 39718 ft 446 kts 222°
2026-05-07 21:17 47.11965 -70.85310 39716 ft 446 kts 222°
2026-05-07 21:17 47.07221 -70.91176 39722 ft 446 kts 222°
2026-05-07 21:18 47.04141 -70.94977 39722 ft 446 kts 222°
2026-05-07 21:18 46.99415 -71.00798 39728 ft 445 kts 222°
2026-05-07 21:19 46.94669 -71.06630 39733 ft 445 kts 222°
2026-05-07 21:19 46.89917 -71.12455 39737 ft 445 kts 222°
2026-05-07 21:20 46.85152 -71.18283 39739 ft 445 kts 222°
2026-05-07 21:20 46.80424 -71.24051 39740 ft 445 kts 222°
2026-05-07 21:21 46.75653 -71.29859 39738 ft 445 kts 222°
2026-05-07 21:21 46.70870 -71.35670 39195 ft 455 kts 222°
2026-05-07 21:22 46.69257 -71.37628 38802 ft 456 kts 222°
2026-05-07 21:22 46.66821 -71.40577 37941 ft 456 kts 222°
2026-05-07 21:22 46.64400 -71.43534 37080 ft 453 kts 224°
2026-05-07 21:22 46.62115 -71.46665 36223 ft 450 kts 226°
2026-05-07 21:23 46.59908 -71.49888 35363 ft 448 kts 227°
2026-05-07 21:23 46.57727 -71.53138 34407 ft 448 kts 228°
2026-05-07 21:23 46.55573 -71.56336 33392 ft 449 kts 227°
2026-05-07 21:23 46.53391 -71.59543 32576 ft 442 kts 227°
2026-05-07 21:24 46.51235 -71.62678 31815 ft 436 kts 227°
2026-05-07 21:24 46.49105 -71.65758 31107 ft 429 kts 227°
2026-05-07 21:24 46.47007 -71.68784 30423 ft 422 kts 227°
2026-05-07 21:24 46.44933 -71.71771 29736 ft 417 kts 227°
2026-05-07 21:25 46.42889 -71.74715 28927 ft 411 kts 227°
2026-05-07 21:25 46.40870 -71.77619 28232 ft 405 kts 227°
2026-05-07 21:25 46.38886 -71.80465 27607 ft 398 kts 227°
2026-05-07 21:25 46.36922 -71.83213 27178 ft 387 kts 227°
2026-05-07 21:26 46.34994 -71.85866 26738 ft 378 kts 226°
2026-05-07 21:26 46.33100 -71.88461 26309 ft 370 kts 226°
2026-05-07 21:26 46.31238 -71.91019 25910 ft 369 kts 227°
2026-05-07 21:26 46.29372 -71.93589 25497 ft 371 kts 227°
2026-05-07 21:27 46.27494 -71.96176 25078 ft 373 kts 227°
2026-05-07 21:27 46.25643 -71.98723 24665 ft 371 kts 227°
2026-05-07 21:27 46.23776 -72.01287 24253 ft 369 kts 227°
2026-05-07 21:27 46.21917 -72.03837 23825 ft 367 kts 227°
2026-05-07 21:28 46.20064 -72.06376 23424 ft 365 kts 227°
2026-05-07 21:28 46.18225 -72.08891 22949 ft 363 kts 227°
2026-05-07 21:28 46.16403 -72.11402 22482 ft 360 kts 229°
2026-05-07 21:28 46.14769 -72.14104 22048 ft 355 kts 234°
2026-05-07 21:29 46.13365 -72.17011 21633 ft 351 kts 239°
2026-05-07 21:29 46.12065 -72.19985 21232 ft 349 kts 240°
2026-05-07 21:29 46.10784 -72.22917 20837 ft 348 kts 239°
2026-05-07 21:29 46.09492 -72.25870 20433 ft 347 kts 239°
2026-05-07 21:30 46.08201 -72.28813 20046 ft 348 kts 239°
2026-05-07 21:30 46.06908 -72.31754 19638 ft 348 kts 239°
2026-05-07 21:30 46.05610 -72.34699 19246 ft 347 kts 239°
2026-05-07 21:30 46.04313 -72.37639 18849 ft 347 kts 239°
2026-05-07 21:31 46.03015 -72.40575 18461 ft 347 kts 239°
2026-05-07 21:31 46.01716 -72.43510 18060 ft 347 kts 239°
2026-05-07 21:31 46.00416 -72.46443 17611 ft 347 kts 239°
2026-05-07 21:31 45.99137 -72.49327 17195 ft 345 kts 239°
2026-05-07 21:32 45.97845 -72.52236 16800 ft 344 kts 239°
2026-05-07 21:32 45.96561 -72.55122 16412 ft 342 kts 239°
2026-05-07 21:32 45.95279 -72.58004 16023 ft 341 kts 239°
2026-05-07 21:32 45.94000 -72.60874 15622 ft 340 kts 239°
2026-05-07 21:33 45.92722 -72.63740 15251 ft 338 kts 239°
2026-05-07 21:33 45.91479 -72.66525 15026 ft 333 kts 239°
2026-05-07 21:33 45.90225 -72.69328 14680 ft 333 kts 239°
2026-05-07 21:33 45.88971 -72.72133 14312 ft 333 kts 239°
2026-05-07 21:34 45.87714 -72.74940 13924 ft 334 kts 239°
2026-05-07 21:34 45.86457 -72.77748 13551 ft 335 kts 239°
2026-05-07 21:34 45.85195 -72.80560 13131 ft 335 kts 239°
2026-05-07 21:34 45.83936 -72.83365 12731 ft 334 kts 239°
2026-05-07 21:35 45.82695 -72.86129 12348 ft 333 kts 239°
2026-05-07 21:35 45.81440 -72.88916 11965 ft 332 kts 239°
2026-05-07 21:35 45.80189 -72.91694 11593 ft 330 kts 239°
2026-05-07 21:35 45.78952 -72.94437 11223 ft 326 kts 239°
2026-05-07 21:36 45.77734 -72.97134 10846 ft 318 kts 239°
2026-05-07 21:36 45.76546 -72.99766 10485 ft 311 kts 239°
2026-05-07 21:36 45.75386 -73.02335 10129 ft 303 kts 239°
2026-05-07 21:36 45.74251 -73.04843 9873 ft 294 kts 239°
2026-05-07 21:37 45.73158 -73.07253 9614 ft 285 kts 239°
2026-05-07 21:37 45.72091 -73.09604 9314 ft 277 kts 239°
2026-05-07 21:37 45.71066 -73.11883 9056 ft 266 kts 242°
2026-05-07 21:37 45.70401 -73.14292 8576 ft 260 kts 257°
2026-05-07 21:38 45.69975 -73.16779 8230 ft 255 kts 257°
2026-05-07 21:38 45.69551 -73.19225 7919 ft 250 kts 257°
2026-05-07 21:38 45.69138 -73.21579 7622 ft 244 kts 257°
2026-05-07 21:38 45.68723 -73.23907 7337 ft 239 kts 257°
2026-05-07 21:39 45.68316 -73.26187 7066 ft 235 kts 257°
2026-05-07 21:39 45.67907 -73.28459 6813 ft 237 kts 257°
2026-05-07 21:39 45.67491 -73.30759 6534 ft 239 kts 257°
2026-05-07 21:39 45.67077 -73.33040 6254 ft 234 kts 257°
2026-05-07 21:40 45.66669 -73.35280 5967 ft 232 kts 257°
2026-05-07 21:40 45.66261 -73.37517 5645 ft 232 kts 257°
2026-05-07 21:40 45.65852 -73.39749 5204 ft 232 kts 257°
2026-05-07 21:40 45.65443 -73.41984 4875 ft 229 kts 257°
2026-05-07 21:41 45.65052 -73.44115 4894 ft 223 kts 257°
2026-05-07 21:41 45.64651 -73.46298 4639 ft 229 kts 257°
2026-05-07 21:41 45.64250 -73.48472 4363 ft 223 kts 257°
2026-05-07 21:41 45.63861 -73.50580 4098 ft 216 kts 257°
2026-05-07 21:42 45.63481 -73.52629 3843 ft 209 kts 256°
2026-05-07 21:42 45.62816 -73.54440 3609 ft 209 kts 231°
2026-05-07 21:42 45.61772 -73.55878 3382 ft 206 kts 227°
2026-05-07 21:42 45.60749 -73.57245 3187 ft 196 kts 228°
2026-05-07 21:43 45.59752 -73.58566 3074 ft 192 kts 227°
2026-05-07 21:43 45.58775 -73.59853 2996 ft 191 kts 227°
2026-05-07 21:43 45.57809 -73.61126 2743 ft 183 kts 227°
2026-05-07 21:43 45.56917 -73.62299 2518 ft 175 kts 228°
2026-05-07 21:44 45.56029 -73.63468 2269 ft 169 kts 228°
2026-05-07 21:44 45.55199 -73.64558 2054 ft 156 kts 228°
2026-05-07 21:44 45.54421 -73.65584 1823 ft 148 kts 228°
2026-05-07 21:44 45.53689 -73.66546 1639 ft 136 kts 229°
2026-05-07 21:45 45.53035 -73.67407 1457 ft 122 kts 230°
2026-05-07 21:45 45.52400 -73.68245 1297 ft 127 kts 230°
2026-05-07 21:45 45.51755 -73.69095 1109 ft 128 kts 229°
2026-05-07 21:45 45.51093 -73.69964 908 ft 128 kts 229°
2026-05-07 21:46 45.50433 -73.70830 737 ft 131 kts 229°
2026-05-07 21:46 45.49758 -73.71714 543 ft 130 kts 229°
2026-05-07 21:46 45.49090 -73.72579 367 ft 131 kts 229°
2026-05-07 21:46 45.48404 -73.73483 179 ft 136 kts 229°
2026-05-07 21:47 45.47726 -73.74359 115 ft 121 kts 235°
2026-05-07 21:47 45.47262 -73.75002 114 ft 73 kts 223°
2026-05-07 21:47 45.46957 -73.75391 112 ft 41 kts 220°
2026-05-07 21:47 45.46775 -73.75570 112 ft 28 kts 205°
2026-05-07 21:48 45.46625 -73.75627 111 ft 20 kts 192°
2026-05-07 21:48 45.46485 -73.75672 109 ft 22 kts 193°
2026-05-07 21:48 45.46312 -73.75723 109 ft 26 kts 186°
2026-05-07 21:48 45.46154 -73.75722 106 ft 21 kts 177°
2026-05-07 21:49 45.46055 -73.75737 108 ft 11 kts 188°
2026-05-07 21:49 45.45987 -73.75738 109 ft 6 kts 178°
2026-05-07 21:49 45.45975 -73.75737 109 ft 0 kts 178°